Regional Weather Roundup
Issued by NWS

Home | Current Version | Previous Version | Text Only | Print | Product List | Glossary Off
Versions: 1 2 3 4 5 6 7 8 9 10 11 12 13 14 15 16 17 18 19 20 21 22 23 24 25 26 27 28 29 30 31 32 33 34 35 36 37 38 39 40 41 42 43 44 45 46 47 48 49 50

379
ASUS44 KLIX 150205
RWRLA
LOUISIANA WEATHER ROUNDUP
NATIONAL WEATHER SERVICE NEW ORLEANS LA
900 PM CDT SUN SEP 14 2014

NOTE: "FAIR" INDICATES FEW OR NO CLOUDS BELOW 12,000 FEET WITH NO
      SIGNIFICANT WEATHER AND/OR OBSTRUCTIONS TO VISIBILITY.
      SKY/WX - SKY CONDITION AND SIGNIFICANT WEATHER.
      TMP - AIR TEMPERATURE.    DP   - DEWPOINT TEMPERATURE.
      RH  - RELATIVE HUMIDITY.  PRES - PRESSURE.
      HX  - HEAT INDEX.         WCI  - WIND CHILL INDEX.

*  THESE STATIONS ARE NOT NWS OR FAA STATIONS AND ARE NOT UNDER
   NWS QUALITY CONTROL.

LAZ040-048-061>063-065-066-069-150300-
SOUTHEAST LOUISIANA

CITY           SKY/WX    TMP DP  RH WIND       PRES   REMARKS
N.O. AUDUBON     N/A     85  75  73 MISG        N/A
N.O. INTL ARPT PTCLDY    83  73  72 E5        30.08R
N.O. LAKEFRONT CLEAR     83  75  77 SE6       30.08R
N.O. DOWNTOWN* FAIR      84  72  65 E3        30.08R
SLIDELL        PTCLDY    79  75  87 CALM      30.08R
BATON ROUGE    CLEAR     77  71  82 N3        30.09R
BOOTHVILLE     CLEAR     82  76  81 E7        30.07R
BELLE CHASSE   CLEAR     79  73  82 CALM      30.07R
BOGALUSA*        N/A     82  73  74 S6        30.11R
GALLIANO*      NOT AVBL
NEW ROADS*     FAIR      73  71  91 NW3       30.10R
GONZALES*      MOCLDY    78  78 100 CALM      30.08R
HAMMOND*       CLOUDY    81  72  74 CALM      30.11R
HOUMA*         CLEAR     80  73  79 NE5       30.07R
PORT FOURCHON* CLEAR     84  75  74 E10       30.09R

$$

LAZ041-044-053-054-150300-
SOUTHWEST LOUISIANA

CITY           SKY/WX    TMP DP  RH WIND       PRES   REMARKS
LAKE CHARLES   CLEAR     73  69  87 NE6       30.10R
LAFAYETTE      CLEAR     74  71  91 N8        30.09R
PATTERSON      CLEAR     79  75  89 N5        30.10R
SALT POINT       N/A     82  77  84 VRB3      30.07R
NEW IBERIA     CLEAR     76  71  85 N9        30.09R
CHENAULT AIRPK CLEAR     72  70  94 CALM      30.11R

$$

LAZ027-028-150300-
CENTRAL LOUISIANA

CITY           SKY/WX    TMP DP  RH WIND       PRES   REMARKS
FORT POLK      CLEAR     71  68  90 NE3       30.12R
ALEXANDRIA INT CLEAR     70  68  93 NW5       30.11R
ALEXANDRIA     CLEAR     73  68  84 N3        30.12R

$$

LAZ001-002-150300-
NORTHWEST LOUISIANA

CITY           SKY/WX    TMP DP  RH WIND       PRES   REMARKS
SHREVEPORT     PTCLDY    76  65  68 E7        30.13R
BARKSDALE AFB  CLEAR     73  65  75 E5        30.13R
DTN SHREVEPORT CLEAR     74  65  73 CALM      30.13R

$$

LAZ014-016-150300-
NORTHEAST LOUISIANA

CITY           SKY/WX    TMP DP  RH WIND       PRES   REMARKS
MONROE         CLEAR     72  67  84 CALM      30.13R
TALLULAH       CLEAR     71  68  90 N3        30.11R

$$




USA.gov is the U.S. government's official web portal to all federal, state and local government web resources and services.